Weather History for KASH - January, 2013

Change the Weather History Date:

Wednesday, January 16, 2013

  Actual Average Record
Temperature  
Mean Temperature 30 °F -  
Max Temperature 32 °F 30 °F 62 °F (1995)
Min Temperature 28 °F 7 °F -13 °F (2009)
Degree Days  
Heating Degree Days 35    
Moisture  
Dew Point 28 °F    
Average Humidity 92    
Maximum Humidity 100    
Minimum Humidity 75    
Precipitation  
Precipitation 0.00 in - - ()
Sea Level Pressure  
Sea Level Pressure 30.27 in    
Wind  
Wind Speed 2 mph (NNE)    
Max Wind Speed 7 mph    
Max Gust Speed -    
Visibility 4 miles    
Events Fog , Rain , Snow    
Averages and records for this station are not official NWS values.
T = Trace of Precipitation, MM = Missing Value Source: NWS Daily Summary

Daily Weather History Graph

Daily Weather History Graph

Search for Another Location

Airport or City:

Trip Planner

Search our weather history database for the weather conditions in past years. The results will help you decide how hot, cold, wet, or windy it might be!

Date:

Astronomy

Jan. 16, 2013 Rise Set
Actual Time 7:13 AM EST 4:39 PM EST
Civil Twilight 6:42 AM EST 5:10 PM EST
Nautical Twilight 6:07 AM EST 5:45 PM EST
Astronomical Twilight 5:33 AM EST 6:18 PM EST
Moon 9:39 AM EST (1/16) 10:37 PM EST (1/16)
Length of Visible Light 10h 28m
Length of Day
9h 25m
Waxing Crescent, 28% of the Moon is Illuminated
Jan 16
Waxing Crescent
Jan 18
First Quarter
Jan 26
Full
Feb 3
Last Quarter
Feb 10
New

Hourly Weather History & Observations

Time (EST) Temp. Windchill Dew Point Humidity Pressure Visibility Wind Dir Wind Speed Gust Speed Precip Events Conditions
12:51 AM 30.0 °F - 24.1 °F 79% 30.25 in 10.0 mi North - - N/A   Clear
1:51 AM 31.1 °F - 24.1 °F 75% 31.00 in 10.0 mi North - - N/A   Partly Cloudy
2:51 AM 30.0 °F - 26.1 °F 85% 31.00 in 10.0 mi North - - N/A   Clear
3:51 AM 30.0 °F - 24.1 °F 79% 30.95 in 10.0 mi North - - N/A   Clear
4:51 AM 31.1 °F - 24.1 °F 75% 30.93 in 10.0 mi North - - N/A   Mostly Cloudy
5:20 AM 30.2 °F - 24.8 °F 80% 30.16 in 2.5 mi North - - 0.00 in   Scattered Clouds
5:25 AM 30.2 °F - 24.8 °F 80% 30.16 in 1.2 mi North - - 0.00 in   Mostly Cloudy
5:36 AM 28.4 °F - 26.6 °F 93% 30.17 in 0.8 mi North - - 0.00 in   Mist
5:51 AM 28.0 °F - 26.1 °F 92% 30.92 in 0.8 mi North - - 0.00 in   Clear
5:59 AM 28.4 °F - 26.6 °F 93% 30.16 in 0.5 mi North - - 0.00 in Fog Light Freezing Fog
6:32 AM 28.4 °F - 26.6 °F 93% 30.14 in 0.8 mi North - - 0.00 in   Clear
6:51 AM 28.0 °F - 27.1 °F 96% 30.90 in 0.8 mi Calm Calm - 0.00 in Snow Light Snow
7:25 AM 28.4 °F - 26.6 °F 93% 30.12 in 0.2 mi Calm Calm - 0.00 in Fog , Snow Light Snow
7:42 AM 28.4 °F - 26.6 °F 93% 30.12 in 0.5 mi Calm Calm - 0.00 in Fog , Snow Light Snow
7:51 AM 28.0 °F - 27.1 °F 96% 30.87 in 0.5 mi Calm Calm - 0.00 in Fog , Snow Light Snow
8:03 AM 28.4 °F - 26.6 °F 93% 30.10 in 0.8 mi North - - 0.00 in Snow Light Snow
8:24 AM 28.4 °F - 26.6 °F 93% 30.11 in 0.8 mi North - - 0.00 in Snow Light Snow
8:36 AM 28.4 °F - 26.6 °F 93% 30.10 in 1.0 mi North - - 0.00 in Snow Light Snow
8:51 AM 29.1 °F 23.0 °F 27.1 °F 92% 30.86 in 1.0 mi NNW 5.8 mph - 0.00 in Snow Light Snow
9:00 AM 28.4 °F - 26.6 °F 93% 30.09 in 0.8 mi North - - 0.00 in Snow Light Snow
9:12 AM 28.4 °F - 26.6 °F 93% 30.08 in 0.8 mi North - - 0.00 in Snow Light Snow
9:30 AM 28.4 °F - 28.4 °F 100% 30.06 in 0.8 mi North - - 0.00 in Snow Light Snow
9:40 AM 28.4 °F - 28.4 °F 100% 30.05 in 1.0 mi North - - 0.00 in Snow Light Snow
9:51 AM 29.1 °F 25.4 °F 28.0 °F 96% 30.81 in 1.5 mi NNE 3.5 mph - 0.00 in   Mostly Cloudy
10:14 AM 30.2 °F - 28.4 °F 93% 30.02 in 1.2 mi North - - 0.00 in   Mostly Cloudy
10:23 AM 30.2 °F - 28.4 °F 93% 30.01 in 1.0 mi North - - 0.00 in   Mostly Cloudy
10:51 AM 31.1 °F 24.5 °F 29.1 °F 92% 30.79 in 1.0 mi North 6.9 mph - 0.00 in Rain Light Freezing Rain
11:02 AM 30.2 °F - 28.4 °F 93% 30.01 in 0.8 mi North - - 0.00 in Rain Light Freezing Rain
11:09 AM 30.2 °F - 28.4 °F 93% 30.00 in 0.8 mi North - - 0.00 in Rain Light Freezing Rain
11:27 AM 30.2 °F - 28.4 °F 93% 29.97 in 1.0 mi North - - 0.00 in Rain Light Freezing Rain
11:39 AM 30.2 °F - 28.4 °F 93% 29.96 in 1.2 mi North - - 0.00 in Rain Light Freezing Rain
11:51 AM 31.1 °F 27.7 °F 29.1 °F 92% 30.72 in 1.5 mi NNE 3.5 mph - 0.00 in Rain Light Freezing Rain
12:30 PM 30.2 °F - 28.4 °F 93% 29.93 in 1.2 mi North - - 0.00 in Rain Light Freezing Rain
12:51 PM 31.1 °F 24.5 °F 29.1 °F 92% 30.70 in 1.2 mi NNE 6.9 mph - 0.00 in Rain Light Freezing Rain
12:55 PM 30.2 °F - 28.4 °F 93% 29.94 in 1.0 mi North - - 0.00 in   Mostly Cloudy
1:07 PM 30.2 °F - 28.4 °F 93% 29.94 in 1.0 mi North - - 0.00 in   Mostly Cloudy
1:15 PM 30.2 °F - 28.4 °F 93% 29.93 in 1.2 mi North - - 0.00 in   Mostly Cloudy
1:24 PM 30.2 °F - 28.4 °F 93% 29.91 in 1.5 mi North - - 0.00 in   Mostly Cloudy
1:40 PM 30.2 °F - 28.4 °F 93% 29.91 in 1.2 mi North - - 0.00 in   Mostly Cloudy
1:51 PM 31.1 °F - 29.1 °F 92% 30.64 in 1.8 mi North - - 0.00 in   Mostly Cloudy
1:59 PM 30.2 °F - 28.4 °F 93% 29.85 in 2.0 mi North - - 0.00 in   Mostly Cloudy
2:51 PM 32.0 °F - 30.0 °F 92% 30.64 in 1.5 mi North - - 0.00 in   Overcast
3:04 PM 32.0 °F - 30.2 °F 93% 29.87 in 1.2 mi North - - 0.00 in Rain Light Freezing Rain
3:13 PM 32.0 °F - 30.2 °F 93% 29.87 in 0.8 mi North - - 0.00 in Rain Light Freezing Rain
3:25 PM 32.0 °F - 30.2 °F 93% 29.87 in 1.2 mi North - - 0.00 in Rain Light Freezing Rain
3:51 PM 32.0 °F - 30.0 °F 92% 30.63 in 1.2 mi North - - 0.00 in   Mostly Cloudy
3:58 PM 32.0 °F - 30.2 °F 93% 29.86 in 1.5 mi North - - 0.00 in Snow Light Snow
4:10 PM 32.0 °F - 30.2 °F 93% 29.86 in 2.5 mi North - - 0.00 in Snow Light Snow
4:51 PM 32.0 °F - 31.1 °F 96% 30.61 in 6.0 mi North - - 0.00 in   Overcast
4:58 PM 32.0 °F - 30.2 °F 93% 29.86 in 7.0 mi North - - N/A   Mostly Cloudy
5:09 PM 32.0 °F - 30.2 °F 93% 29.86 in 9.0 mi North - - N/A   Mostly Cloudy
5:38 PM 32.0 °F - 30.2 °F 93% 29.85 in 10.0 mi North - - N/A   Mostly Cloudy
5:51 PM 32.0 °F - 30.0 °F 92% 30.63 in 10.0 mi North - - N/A   Mostly Cloudy
6:51 PM 32.0 °F - 30.0 °F 92% 30.60 in 6.0 mi North - - 0.00 in   Overcast
7:31 PM 32.0 °F - 30.2 °F 93% 29.84 in 10.0 mi North - - N/A   Overcast
7:51 PM 32.0 °F - 30.0 °F 92% 30.61 in 10.0 mi North - - N/A   Overcast
8:06 PM 32.0 °F - 30.2 °F 93% 29.84 in 10.0 mi North - - N/A   Overcast
8:51 PM 32.0 °F - 30.0 °F 92% 30.61 in 7.0 mi North - - N/A   Overcast
9:51 PM 32.0 °F - 30.0 °F 92% 30.59 in 7.0 mi North - - N/A   Overcast
10:51 PM 32.0 °F - 30.0 °F 92% 30.58 in 9.0 mi North - - N/A   Overcast
11:11 PM 30.2 °F - 28.4 °F 93% 29.82 in 9.0 mi North - - N/A   Scattered Clouds
11:51 PM 30.0 °F - 29.1 °F 96% 30.58 in 8.0 mi North - - N/A   Clear